QPF
0.01 0.02 0.02 0.03 0.02 0.02 0.00 0.00 0.01 0.01 0.00 0.00 0.00 0.01 0.01 0.03 0.03 0.01 0.00 0.01 0.01 0.01 0.01 0.01 0.01 0.01 0.00 0.00 0.01 0.01 0.03 0.03 0.03 0.03 0.02 0.03 0.03 0.04 0.04 0.03 0.02 0.02 0.02 0.01
0.02 0.02 0.01 0.00 0.00 0.01 0.00 0.00 0.00 0.00 0.00 0.00 0.00 0.01 0.02 0.02 0.02 0.01 0.00 0.00 0.01 0.01 0.01 0.01 0.01 0.01 0.00 0.00 0.01 0.01 0.02 0.02 0.02 0.02 0.03 0.02 0.02 0.03 0.03 0.02 0.02 0.03 0.02 0.01
0.02 0.01 0.00 0.00 0.00 0.01 0.01 0.00 0.00 0.01 0.00 0.00 0.00 0.01 0.01 0.01 0.01 0.00 0.00 0.00 0.00 0.00 0.01 0.01 0.01 0.00 0.00 0.00 0.00 0.01 0.01 0.01 0.01 0.01 0.02 0.01 0.02 0.02 0.03 0.03 0.05 0.06 0.04 0.02
0.01 0.00 0.00 0.00 0.00 0.01 0.01 0.00 0.00 0.00 0.01 0.01 0.01 0.02 0.01 0.01 0.01 0.00 0.00 0.00 0.00 0.00 0.00 0.01 0.01 0.01 0.00 0.00 0.01 0.01 0.01 0.01 0.02 0.02 0.02 0.01 0.02 0.02 0.02 0.02 0.03 0.03 0.02 0.01
0.01 0.00 0.00 0.00 0.00 0.01 0.01 0.00 0.00 0.00 0.00 0.01 0.01 0.01 0.01 0.01 0.01 0.00 0.00 0.00 0.00 0.00 0.00 0.00 0.00 0.00 0.00 0.00 0.00 0.01 0.01 0.01 0.02 0.03 0.02 0.01 0.01 0.01 0.01 0.01 0.01 0.01 0.01 0.01
0.00 0.01 0.00 0.00 0.00 0.01 0.00 0.00 0.00 0.00 0.00 0.01 0.00 0.01 0.01 0.01 0.01 0.00 0.00 0.00 0.00 0.00 0.00 0.00 0.00 0.00 0.00 0.00 0.01 0.01 0.01 0.01 0.01 0.01 0.02 0.02 0.01 0.01 0.00 0.01 0.01 0.01 0.01 0.01
0.01 0.01 0.01 0.00 0.01 0.00 0.00 0.01 0.02 0.01 0.01 0.00 0.01 0.01 0.01 0.02 0.02 0.01 0.00 0.00 0.00 0.00 0.00 0.00 0.00 0.00 0.00 0.00 0.00 0.01 0.01 0.01 0.00 0.00 0.01 0.01 0.01 0.02 0.01 0.01 0.01 0.01 0.01 0.01
0.01 0.01 0.01 0.00 0.01 0.01 0.00 0.01 0.02 0.02 0.01 0.00 0.01 0.01 0.01 0.02 0.01 0.01 0.00 0.00 0.00 0.00 0.00 0.00 0.00 0.00 0.00 0.00 0.00 0.00 0.00 0.00 0.00 0.00 0.01 0.01 0.00 0.01 0.02 0.02 0.02 0.02 0.02 0.01
0.01 0.01 0.01 0.00 0.00 0.00 0.01 0.01 0.01 0.02 0.01 0.01 0.01 0.01 0.01 0.01 0.01 0.01 0.00 0.00 0.00 0.00 0.00 0.00 0.00 0.00 0.00 0.00 0.00 0.00 0.01 0.00 0.00 0.00 0.00 0.01 0.00 0.00 0.01 0.01 0.01 0.01 0.01 0.01
0.00 0.01 0.01 0.01 0.01 0.00 0.00 0.01 0.01 0.03 0.02 0.02 0.01 0.01 0.02 0.01 0.00 0.00 0.00 0.01 0.00 0.00 0.00 0.00 0.01 0.00 0.00 0.00 0.01 0.01 0.01 0.01 0.01 0.00 0.00 0.01 0.00 0.00 0.01 0.01 0.01 0.01 0.00 0.00
0.00 0.01 0.01 0.01 0.01 0.01 0.01 0.01 0.01 0.03 0.02 0.02 0.02 0.02 0.02 0.01 0.00 0.00 0.00 0.00 0.00 0.00 0.00 0.00 0.01 0.01 0.01 0.02 0.01 0.01 0.01 0.00 0.01 0.01 0.01 0.01 0.01 0.01 0.01 0.01 0.01 0.00 0.00 0.00
0.00 0.00 0.01 0.01 0.00 0.01 0.01 0.01 0.02 0.03 0.03 0.02 0.02 0.03 0.02 0.01 0.00 0.00 0.00 0.00 0.00 0.00 0.00 0.00 0.01 0.01 0.01 0.01 0.01 0.01 0.00 0.00 0.00 0.01 0.01 0.02 0.01 0.01 0.01 0.01 0.01 0.01 0.00 0.00
0.01 0.01 0.01 0.02 0.01 0.01 0.01 0.01 0.01 0.01 0.03 0.03 0.03 0.04 0.02 0.01 0.00 0.00 0.01 0.01 0.00 0.00 0.00 0.00 0.02 0.01 0.01 0.01 0.01 0.01 0.00 0.00 0.00 0.00 0.02 0.02 0.02 0.02 0.02 0.02 0.02 0.02 0.01 0.01
0.01 0.01 0.01 0.01 0.01 0.01 0.01 0.02 0.01 0.01 0.03 0.03 0.02 0.02 0.02 0.02 0.01 0.01 0.01 0.02 0.02 0.01 0.00 0.00 0.01 0.01 0.01 0.01 0.01 0.01 0.01 0.00 0.00 0.01 0.02 0.03 0.03 0.02 0.02 0.02 0.02 0.03 0.04 0.04
0.01 0.01 0.01 0.00 0.01 0.00 0.01 0.02 0.02 0.01 0.01 0.02 0.02 0.02 0.03 0.02 0.01 0.01 0.01 0.01 0.01 0.01 0.01 0.01 0.01 0.01 0.01 0.01 0.01 0.01 0.01 0.01 0.01 0.01 0.01 0.02 0.02 0.02 0.02 0.01 0.01 0.01 0.01 0.02
0.01 0.01 0.01 0.00 0.00 0.00 0.00 0.01 0.02 0.01 0.00 0.01 0.01 0.02 0.03 0.02 0.02 0.01 0.01 0.01 0.01 0.00 0.01 0.01 0.01 0.01 0.00 0.01 0.01 0.01 0.01 0.01 0.01 0.00 0.01 0.01 0.02 0.02 0.02 0.02 0.02 0.02 0.01 0.01
0.01 0.01 0.01 0.01 0.01 0.01 0.01 0.01 0.02 0.01 0.00 0.00 0.01 0.01 0.01 0.01 0.01 0.02 0.01 0.01 0.01 0.01 0.00 0.00 0.00 0.00 0.00 0.00 0.01 0.01 0.00 0.01 0.01 0.01 0.01 0.02 0.02 0.02 0.02 0.02 0.02 0.03 0.03 0.02
0.01 0.01 0.01 0.02 0.02 0.02 0.01 0.00 0.00 0.01 0.01 0.01 0.01 0.00 0.00 0.01 0.01 0.01 0.01 0.01 0.01 0.02 0.00 0.00 0.00 0.00 0.00 0.01 0.01 0.01 0.01 0.00 0.01 0.01 0.02 0.02 0.02 0.02 0.02 0.02 0.02 0.02 0.02 0.02
0.00 0.01 0.02 0.03 0.03 0.03 0.01 0.00 0.00 0.01 0.01 0.00 0.01 0.00 0.00 0.01 0.01 0.01 0.01 0.01 0.01 0.01 0.01 0.00 0.00 0.00 0.00 0.00 0.01 0.01 0.00 0.00 0.00 0.01 0.01 0.02 0.03 0.02 0.02 0.02 0.02 0.01 0.01 0.01
0.01 0.02 0.03 0.03 0.04 0.04 0.02 0.01 0.00 0.00 0.01 0.01 0.00 0.00 0.00 0.01 0.01 0.01 0.01 0.01 0.01 0.01 0.01 0.01 0.00 0.00 0.00 0.01 0.01 0.01 0.00 0.00 0.00 0.00 0.00 0.01 0.01 0.02 0.01 0.01 0.01 0.01 0.02 0.02
0.04 0.04 0.04 0.04 0.04 0.02 0.01 0.02 0.02 0.02 0.02 0.01 0.00 0.00 0.00 0.00 0.00 0.00 0.01 0.01 0.01 0.02 0.02 0.01 0.00 0.00 0.00 0.00 0.01 0.01 0.01 0.00 0.00 0.00 0.00 0.00 0.01 0.01 0.01 0.01 0.01 0.01 0.02 0.02
0.04 0.04 0.04 0.04 0.04 0.02 0.01 0.02 0.02 0.02 0.01 0.01 0.01 0.01 0.00 0.00 0.00 0.00 0.00 0.00 0.01 0.01 0.02 0.02 0.01 0.00 0.00 0.01 0.02 0.01 0.01 0.01 0.00 0.00 0.00 0.00 0.00 0.01 0.00 0.00 0.00 0.01 0.01 0.01
0.03 0.03 0.04 0.03 0.03 0.01 0.01 0.00 0.01 0.01 0.01 0.02 0.02 0.01 0.01 0.01 0.01 0.00 0.00 0.00 0.00 0.01 0.01 0.01 0.01 0.00 0.00 0.00 0.01 0.01 0.01 0.01 0.00 0.00 0.00 0.00 0.00 0.01 0.01 0.00 0.00 0.01 0.01 0.01
0.02 0.02 0.03 0.02 0.01 0.00 0.00 0.00 0.01 0.01 0.02 0.02 0.02 0.02 0.01 0.01 0.01 0.01 0.01 0.01 0.01 0.00 0.00 0.00 0.01 0.00 0.00 0.00 0.01 0.01 0.01 0.01 0.00 0.00 0.00 0.00 0.00 0.00 0.00 0.00 0.01 0.01 0.01 0.01
0.00 0.01 0.02 0.02 0.01 0.01 0.00 0.00 0.01 0.01 0.01 0.01 0.02 0.02 0.01 0.01 0.00 0.00 0.01 0.00 0.00 0.00 0.00 0.00 0.00 0.00 0.00 0.00 0.01 0.01 0.01 0.00 0.00 0.00 0.00 0.01 0.01 0.00 0.00 0.00 0.01 0.01 0.01 0.01
0.00 0.01 0.01 0.02 0.01 0.01 0.01 0.00 0.01 0.01 0.01 0.02 0.02 0.02 0.01 0.01 0.01 0.01 0.01 0.01 0.01 0.01 0.01 0.01 0.00 0.00 0.00 0.00 0.01 0.01 0.01 0.01 0.00 0.00 0.00 0.01 0.01 0.01 0.00 0.01 0.01 0.01 0.01 0.01
MSLP
1011.81 1012.66 1013.48 1014.21 1014.84 1015.34 1015.74 1016.05 1016.30 1016.52 1016.73 1016.94 1017.13 1017.32 1017.49 1017.62 1017.72 1017.79 1017.85 1017.93 1018.02 1018.16 1018.33 1018.53 1018.74 1018.95 1019.12 1019.24 1019.30 1019.32 1019.29 1019.24 1019.19 1019.15 1019.15 1019.17 1019.20 1019.22 1019.21 1019.15 1019.04 1018.86 1018.64 1018.38
1012.35 1013.10 1013.80 1014.42 1014.94 1015.37 1015.71 1015.98 1016.21 1016.41 1016.58 1016.73 1016.85 1016.93 1016.99 1017.02 1017.04 1017.07 1017.14 1017.27 1017.45 1017.69 1017.98 1018.29 1018.58 1018.84 1019.04 1019.17 1019.23 1019.25 1019.23 1019.21 1019.21 1019.24 1019.29 1019.36 1019.43 1019.46 1019.44 1019.36 1019.20 1019.00 1018.76 1018.51
1012.77 1013.43 1014.02 1014.54 1014.99 1015.36 1015.67 1015.93 1016.15 1016.33 1016.47 1016.54 1016.56 1016.52 1016.44 1016.34 1016.26 1016.23 1016.29 1016.44 1016.70 1017.04 1017.44 1017.85 1018.24 1018.56 1018.80 1018.96 1019.04 1019.08 1019.10 1019.14 1019.21 1019.30 1019.43 1019.56 1019.66 1019.70 1019.68 1019.57 1019.39 1019.15 1018.89 1018.65
1013.06 1013.63 1014.14 1014.59 1014.98 1015.33 1015.64 1015.91 1016.14 1016.32 1016.41 1016.42 1016.33 1016.15 1015.91 1015.67 1015.46 1015.34 1015.35 1015.51 1015.82 1016.24 1016.73 1017.24 1017.71 1018.10 1018.40 1018.60 1018.73 1018.82 1018.90 1019.00 1019.15 1019.33 1019.53 1019.72 1019.86 1019.93 1019.90 1019.78 1019.57 1019.32 1019.06 1018.81
1013.25 1013.74 1014.18 1014.58 1014.94 1015.29 1015.62 1015.92 1016.18 1016.37 1016.44 1016.38 1016.18 1015.87 1015.47 1015.06 1014.71 1014.48 1014.42 1014.56 1014.88 1015.34 1015.91 1016.49 1017.05 1017.51 1017.88 1018.14 1018.33 1018.47 1018.62 1018.81 1019.04 1019.30 1019.57 1019.82 1020.01 1020.10 1020.08 1019.95 1019.74 1019.49 1019.22 1018.98
1013.34 1013.78 1014.17 1014.52 1014.88 1015.24 1015.60 1015.95 1016.26 1016.46 1016.53 1016.42 1016.14 1015.69 1015.15 1014.58 1014.08 1013.72 1013.57 1013.65 1013.95 1014.44 1015.05 1015.70 1016.32 1016.85 1017.29 1017.61 1017.87 1018.09 1018.31 1018.56 1018.86 1019.19 1019.53 1019.83 1020.05 1020.17 1020.17 1020.05 1019.85 1019.61 1019.35 1019.13
1013.38 1013.76 1014.10 1014.44 1014.79 1015.18 1015.59 1015.99 1016.35 1016.59 1016.66 1016.52 1016.17 1015.62 1014.95 1014.24 1013.59 1013.11 1012.85 1012.86 1013.13 1013.61 1014.24 1014.93 1015.60 1016.21 1016.70 1017.10 1017.42 1017.70 1017.98 1018.29 1018.64 1019.02 1019.40 1019.73 1019.99 1020.13 1020.15 1020.05 1019.88 1019.66 1019.43 1019.22
1013.36 1013.70 1014.01 1014.33 1014.69 1015.10 1015.55 1016.01 1016.41 1016.69 1016.77 1016.62 1016.23 1015.61 1014.84 1014.01 1013.25 1012.65 1012.29 1012.22 1012.44 1012.90 1013.53 1014.25 1014.97 1015.63 1016.19 1016.65 1017.03 1017.36 1017.68 1018.03 1018.41 1018.81 1019.21 1019.56 1019.82 1019.98 1020.02 1019.96 1019.81 1019.62 1019.42 1019.24
1013.27 1013.58 1013.88 1014.20 1014.56 1014.99 1015.47 1015.97 1016.41 1016.72 1016.82 1016.67 1016.25 1015.59 1014.75 1013.85 1013.00 1012.31 1011.87 1011.73 1011.90 1012.34 1012.97 1013.71 1014.46 1015.17 1015.79 1016.30 1016.73 1017.11 1017.46 1017.82 1018.20 1018.60 1018.98 1019.32 1019.59 1019.76 1019.81 1019.77 1019.66 1019.50 1019.34 1019.19
1013.09 1013.40 1013.69 1014.01 1014.38 1014.82 1015.32 1015.84 1016.30 1016.62 1016.74 1016.59 1016.17 1015.49 1014.63 1013.68 1012.78 1012.04 1011.55 1011.37 1011.50 1011.91 1012.54 1013.29 1014.08 1014.83 1015.50 1016.07 1016.55 1016.95 1017.32 1017.68 1018.05 1018.41 1018.77 1019.08 1019.33 1019.49 1019.56 1019.54 1019.45 1019.33 1019.19 1019.06
1012.82 1013.14 1013.45 1013.77 1014.15 1014.58 1015.08 1015.58 1016.03 1016.35 1016.47 1016.32 1015.90 1015.24 1014.38 1013.44 1012.53 1011.78 1011.27 1011.07 1011.18 1011.58 1012.21 1012.98 1013.80 1014.60 1015.32 1015.93 1016.45 1016.89 1017.26 1017.61 1017.95 1018.28 1018.59 1018.87 1019.09 1019.24 1019.30 1019.29 1019.23 1019.12 1019.00 1018.88
1012.47 1012.82 1013.15 1013.48 1013.85 1014.27 1014.73 1015.19 1015.60 1015.89 1015.98 1015.83 1015.43 1014.78 1013.97 1013.07 1012.20 1011.48 1010.99 1010.79 1010.91 1011.31 1011.94 1012.73 1013.57 1014.41 1015.17 1015.84 1016.40 1016.86 1017.25 1017.59 1017.90 1018.19 1018.46 1018.69 1018.88 1019.01 1019.06 1019.06 1019.00 1018.90 1018.79 1018.66
1012.09 1012.48 1012.83 1013.16 1013.51 1013.89 1014.28 1014.67 1015.01 1015.23 1015.29 1015.12 1014.73 1014.13 1013.38 1012.55 1011.76 1011.10 1010.67 1010.51 1010.64 1011.05 1011.69 1012.49 1013.35 1014.22 1015.02 1015.73 1016.32 1016.82 1017.22 1017.56 1017.85 1018.12 1018.35 1018.55 1018.70 1018.81 1018.85 1018.84 1018.78 1018.68 1018.56 1018.42
1011.75 1012.17 1012.53 1012.86 1013.17 1013.47 1013.78 1014.06 1014.30 1014.43 1014.42 1014.23 1013.85 1013.31 1012.64 1011.91 1011.23 1010.67 1010.32 1010.21 1010.38 1010.81 1011.45 1012.24 1013.11 1013.99 1014.82 1015.56 1016.19 1016.71 1017.14 1017.49 1017.78 1018.03 1018.23 1018.41 1018.53 1018.62 1018.65 1018.63 1018.57 1018.46 1018.32 1018.15
1011.52 1011.96 1012.32 1012.61 1012.86 1013.07 1013.25 1013.41 1013.50 1013.53 1013.44 1013.22 1012.86 1012.38 1011.81 1011.21 1010.66 1010.22 1009.97 1009.93 1010.14 1010.58 1011.21 1011.99 1012.85 1013.72 1014.55 1015.31 1015.96 1016.52 1016.97 1017.34 1017.64 1017.88 1018.08 1018.23 1018.34 1018.41 1018.43 1018.41 1018.33 1018.21 1018.05 1017.86
1011.43 1011.88 1012.22 1012.46 1012.62 1012.71 1012.75 1012.74 1012.69 1012.59 1012.42 1012.16 1011.82 1011.41 1010.96 1010.50 1010.10 1009.80 1009.66 1009.71 1009.96 1010.40 1011.02 1011.76 1012.58 1013.42 1014.23 1014.99 1015.66 1016.23 1016.71 1017.10 1017.41 1017.66 1017.86 1018.01 1018.11 1018.17 1018.18 1018.14 1018.06 1017.94 1017.77 1017.56
1011.49 1011.92 1012.22 1012.39 1012.44 1012.40 1012.28 1012.11 1011.91 1011.68 1011.42 1011.13 1010.82 1010.49 1010.16 1009.85 1009.61 1009.46 1009.44 1009.57 1009.86 1010.31 1010.89 1011.59 1012.35 1013.14 1013.91 1014.64 1015.31 1015.89 1016.38 1016.79 1017.12 1017.37 1017.57 1017.72 1017.81 1017.86 1017.87 1017.83 1017.75 1017.63 1017.46 1017.25
1011.63 1012.03 1012.27 1012.36 1012.30 1012.12 1011.85 1011.52 1011.17 1010.82 1010.49 1010.18 1009.89 1009.65 1009.45 1009.29 1009.21 1009.22 1009.32 1009.54 1009.87 1010.32 1010.87 1011.50 1012.19 1012.91 1013.63 1014.32 1014.96 1015.53 1016.03 1016.45 1016.78 1017.04 1017.24 1017.38 1017.46 1017.50 1017.51 1017.47 1017.40 1017.28 1017.13 1016.94
1011.72 1012.08 1012.27 1012.27 1012.11 1011.80 1011.40 1010.94 1010.48 1010.03 1009.64 1009.32 1009.07 1008.91 1008.83 1008.84 1008.91 1009.06 1009.29 1009.59 1009.97 1010.42 1010.94 1011.51 1012.14 1012.78 1013.43 1014.07 1014.68 1015.23 1015.71 1016.12 1016.45 1016.70 1016.89 1017.01 1017.08 1017.11 1017.10 1017.07 1017.00 1016.91 1016.78 1016.62
1011.62 1011.95 1012.08 1012.01 1011.77 1011.38 1010.89 1010.34 1009.79 1009.28 1008.85 1008.54 1008.34 1008.27 1008.30 1008.44 1008.67 1008.96 1009.30 1009.69 1010.11 1010.58 1011.08 1011.61 1012.17 1012.75 1013.34 1013.93 1014.48 1015.00 1015.46 1015.85 1016.15 1016.39 1016.54 1016.64 1016.68 1016.69 1016.67 1016.63 1016.58 1016.51 1016.42 1016.30
1011.22 1011.50 1011.60 1011.50 1011.21 1010.78 1010.24 1009.65 1009.06 1008.53 1008.11 1007.82 1007.67 1007.68 1007.82 1008.08 1008.43 1008.85 1009.30 1009.77 1010.26 1010.75 1011.25 1011.76 1012.28 1012.81 1013.35 1013.88 1014.39 1014.87 1015.29 1015.64 1015.91 1016.11 1016.22 1016.28 1016.28 1016.25 1016.21 1016.17 1016.12 1016.08 1016.02 1015.95
1010.44 1010.69 1010.77 1010.66 1010.38 1009.95 1009.42 1008.84 1008.27 1007.77 1007.38 1007.13 1007.04 1007.13 1007.36 1007.72 1008.18 1008.70 1009.25 1009.81 1010.35 1010.89 1011.41 1011.91 1012.41 1012.92 1013.42 1013.91 1014.38 1014.81 1015.19 1015.49 1015.72 1015.86 1015.93 1015.93 1015.88 1015.81 1015.74 1015.68 1015.63 1015.60 1015.58 1015.56
1009.30 1009.52 1009.60 1009.51 1009.27 1008.89 1008.43 1007.92 1007.41 1006.97 1006.64 1006.46 1006.44 1006.59 1006.90 1007.34 1007.89 1008.49 1009.13 1009.76 1010.38 1010.96 1011.52 1012.04 1012.55 1013.03 1013.51 1013.97 1014.40 1014.79 1015.12 1015.37 1015.54 1015.63 1015.63 1015.58 1015.48 1015.36 1015.25 1015.16 1015.11 1015.08 1015.09 1015.10
1007.88 1008.08 1008.16 1008.11 1007.94 1007.66 1007.30 1006.90 1006.51 1006.17 1005.93 1005.82 1005.87 1006.09 1006.46 1006.97 1007.57 1008.25 1008.95 1009.65 1010.33 1010.97 1011.57 1012.13 1012.65 1013.14 1013.60 1014.03 1014.43 1014.77 1015.05 1015.25 1015.36 1015.38 1015.33 1015.21 1015.06 1014.89 1014.74 1014.62 1014.55 1014.52 1014.53 1014.56
1006.34 1006.50 1006.58 1006.58 1006.50 1006.33 1006.11 1005.85 1005.60 1005.39 1005.26 1005.25 1005.38 1005.65 1006.08 1006.63 1007.29 1008.01 1008.77 1009.53 1010.26 1010.95 1011.59 1012.18 1012.72 1013.21 1013.66 1014.07 1014.42 1014.72 1014.95 1015.09 1015.14 1015.11 1015.00 1014.83 1014.63 1014.42 1014.23 1014.08 1013.98 1013.94 1013.94 1013.98
1004.85 1004.96 1005.03 1005.08 1005.08 1005.04 1004.96 1004.85 1004.75 1004.69 1004.69 1004.78 1004.99 1005.33 1005.81 1006.40 1007.09 1007.85 1008.65 1009.45 1010.22 1010.95 1011.62 1012.23 1012.78 1013.27 1013.70 1014.08 1014.39 1014.64 1014.81 1014.90 1014.90 1014.82 1014.67 1014.46 1014.22 1013.97 1013.75 1013.57 1013.45 1013.38 1013.37 1013.39
Thickness
5750 5739 5731 5738 5744 5745 5744 5740 5736 5742 5755 5748 5741 5741 5747 5752 5750 5747 5746 5745 5742 5741 5743 5742 5740 5738 5735 5733 5730 5728 5725 5723 5721 5717 5714 5711 5708 5709 5708 5707 5706 5705 5704 5703
5737 5731 5743 5749 5749 5745 5741 5734 5734 5742 5753 5747 5740 5741 5749 5751 5749 5748 5747 5745 5744 5741 5740 5738 5737 5735 5732 5730 5728 5726 5723 5721 5719 5715 5713 5710 5708 5706 5705 5704 5702 5701 5700 5699
5729 5737 5749 5744 5739 5736 5736 5732 5733 5733 5742 5746 5737 5731 5740 5747 5750 5749 5749 5748 5746 5742 5738 5735 5734 5732 5730 5727 5726 5725 5722 5719 5717 5714 5711 5708 5705 5702 5699 5698 5697 5697 5696 5695
5733 5742 5741 5736 5734 5733 5725 5739 5737 5732 5724 5722 5730 5710 5731 5741 5740 5742 5743 5744 5743 5741 5739 5735 5733 5730 5728 5726 5725 5724 5721 5718 5715 5712 5707 5703 5698 5694 5694 5694 5693 5693 5692 5691
5728 5736 5734 5728 5731 5734 5730 5740 5735 5730 5723 5718 5725 5714 5723 5739 5733 5736 5740 5741 5741 5740 5738 5734 5732 5729 5727 5725 5723 5721 5718 5715 5712 5709 5705 5700 5696 5693 5692 5691 5690 5689 5688 5687
5731 5740 5738 5734 5737 5737 5735 5731 5728 5726 5718 5702 5721 5714 5713 5730 5735 5737 5739 5739 5738 5738 5735 5733 5731 5727 5724 5722 5719 5717 5713 5710 5709 5706 5702 5697 5693 5690 5688 5687 5685 5684 5684 5683
5717 5727 5735 5737 5725 5729 5726 5710 5695 5693 5692 5703 5730 5719 5716 5735 5743 5741 5737 5736 5735 5734 5731 5727 5724 5722 5719 5716 5714 5713 5709 5706 5704 5701 5698 5694 5691 5688 5685 5683 5682 5680 5679 5678
5703 5705 5724 5729 5723 5716 5720 5713 5692 5684 5692 5707 5723 5714 5721 5739 5742 5742 5738 5734 5731 5729 5726 5723 5721 5719 5716 5713 5711 5708 5705 5701 5699 5697 5694 5691 5688 5685 5682 5681 5679 5677 5676 5675
5701 5701 5722 5725 5727 5721 5711 5711 5719 5703 5703 5698 5709 5715 5722 5733 5732 5732 5730 5727 5724 5722 5721 5718 5716 5715 5713 5709 5707 5704 5700 5697 5695 5692 5690 5688 5685 5682 5679 5678 5677 5674 5673 5672
5707 5695 5708 5716 5718 5719 5717 5713 5707 5696 5683 5682 5698 5704 5706 5713 5717 5721 5721 5719 5718 5718 5716 5714 5711 5710 5709 5706 5704 5702 5698 5693 5691 5689 5686 5684 5681 5679 5677 5675 5672 5671 5669 5668
5706 5693 5698 5704 5700 5701 5706 5704 5701 5697 5696 5681 5677 5692 5721 5718 5719 5716 5716 5716 5714 5713 5710 5708 5705 5704 5702 5700 5698 5696 5693 5689 5687 5685 5683 5680 5677 5675 5673 5671 5669 5667 5665 5664
5699 5691 5687 5697 5711 5714 5707 5703 5698 5682 5685 5691 5680 5688 5723 5720 5718 5714 5710 5710 5709 5708 5706 5703 5700 5698 5695 5693 5691 5690 5688 5685 5683 5681 5679 5676 5674 5671 5668 5666 5664 5662 5660 5659
5687 5680 5672 5677 5689 5699 5697 5700 5699 5694 5687 5682 5675 5682 5713 5714 5710 5709 5705 5703 5701 5701 5700 5698 5695 5691 5689 5687 5686 5684 5683 5681 5679 5676 5673 5670 5668 5666 5663 5661 5659 5657 5655 5653
5680 5675 5670 5664 5675 5684 5684 5689 5692 5687 5675 5676 5682 5686 5697 5700 5700 5699 5698 5697 5695 5694 5693 5691 5688 5686 5684 5682 5681 5679 5677 5676 5674 5671 5668 5665 5663 5660 5658 5656 5654 5652 5650 5647
5676 5669 5675 5680 5687 5687 5683 5682 5686 5684 5685 5678 5683 5684 5690 5694 5695 5694 5693 5691 5689 5687 5686 5685 5683 5681 5679 5677 5676 5674 5672 5670 5668 5665 5662 5659 5658 5656 5653 5651 5649 5647 5644 5643
5670 5665 5668 5671 5681 5681 5678 5680 5680 5682 5684 5682 5682 5681 5693 5694 5692 5688 5687 5685 5681 5680 5679 5680 5679 5677 5674 5673 5671 5669 5666 5665 5663 5659 5656 5654 5652 5649 5647 5645 5643 5641 5638 5636
5662 5659 5654 5655 5668 5669 5664 5677 5677 5677 5681 5680 5673 5679 5686 5684 5683 5681 5680 5678 5676 5675 5674 5673 5672 5671 5670 5668 5666 5663 5661 5659 5656 5653 5651 5648 5645 5642 5640 5639 5636 5633 5631 5629
5658 5655 5650 5648 5651 5640 5667 5686 5683 5677 5677 5680 5678 5678 5678 5676 5676 5678 5677 5673 5671 5670 5669 5667 5668 5666 5665 5664 5661 5658 5656 5653 5650 5647 5644 5642 5639 5636 5633 5631 5629 5626 5625 5622
5661 5652 5644 5642 5638 5646 5664 5675 5675 5667 5665 5675 5671 5670 5671 5672 5669 5668 5672 5670 5667 5665 5664 5663 5662 5662 5660 5657 5655 5652 5648 5646 5643 5640 5637 5635 5633 5629 5626 5623 5621 5619 5617 5615
5657 5654 5642 5637 5631 5633 5652 5666 5673 5664 5650 5666 5666 5662 5661 5660 5648 5653 5664 5663 5661 5659 5657 5656 5655 5655 5652 5650 5648 5644 5641 5638 5635 5633 5631 5629 5626 5623 5620 5617 5615 5613 5611 5609
5638 5638 5634 5632 5630 5639 5656 5661 5661 5638 5642 5659 5660 5657 5654 5649 5646 5650 5654 5653 5652 5650 5649 5648 5646 5646 5644 5643 5641 5636 5633 5630 5629 5627 5624 5622 5619 5616 5614 5611 5608 5606 5604 5602
5634 5631 5630 5630 5625 5630 5653 5651 5644 5644 5654 5655 5654 5652 5648 5644 5644 5644 5644 5643 5642 5641 5641 5639 5636 5635 5636 5635 5631 5628 5625 5624 5622 5619 5616 5613 5611 5609 5607 5603 5601 5598 5596 5593
5637 5635 5632 5631 5631 5643 5649 5648 5649 5651 5648 5647 5646 5645 5641 5637 5635 5635 5635 5634 5634 5633 5632 5630 5628 5626 5627 5626 5623 5619 5618 5616 5613 5609 5606 5604 5602 5600 5598 5595 5591 5589 5586 5583
5637 5641 5634 5631 5636 5641 5643 5644 5644 5644 5642 5642 5640 5637 5634 5629 5628 5627 5626 5626 5625 5625 5623 5622 5619 5618 5617 5616 5615 5612 5610 5608 5604 5600 5598 5595 5592 5590 5588 5585 5582 5579 5576 5573
5629 5630 5626 5625 5630 5633 5635 5636 5637 5637 5637 5635 5632 5630 5626 5623 5620 5619 5619 5619 5618 5617 5616 5613 5611 5610 5609 5608 5606 5604 5602 5598 5594 5592 5589 5586 5582 5579 5576 5573 5570 5569 5567 5564
5628 5623 5618 5617 5625 5623 5624 5630 5632 5629 5627 5625 5623 5620 5619 5617 5614 5613 5612 5611 5609 5608 5607 5604 5602 5601 5601 5599 5597 5594 5592 5589 5585 5582 5579 5576 5572 5569 5566 5562 5559 5558 5557 5556